Time,TemperatureF,DewpointF,PressureIn,WindDirection,WindDirectionDegrees,WindSpeedMPH,WindSpeedGustMPH,Humidity,HourlyPrecipIn,Conditions,Clouds,dailyrainin,SoftwareType,DateUTC
2013-01-24 00:00:00,26.0,24.0,-100.00,South,189,2.0,11.0,91,-99.99,,,-99.99,,2013-01-24 07:00:00,
2013-01-24 00:33:00,26.0,24.0,-100.00,South,189,2.0,11.0,91,-99.99,,,-99.99,,2013-01-24 07:33:00,
2013-01-24 00:43:00,26.0,24.0,-100.00,South,189,2.0,11.0,91,-99.99,,,-99.99,,2013-01-24 07:43:00,
2013-01-24 00:53:00,26.0,24.0,-100.00,South,189,2.0,11.0,91,-99.99,,,-99.99,,2013-01-24 07:53:00,
2013-01-24 01:00:00,24.0,22.0,-100.00,South,186,2.0,9.0,91,-99.99,,,-99.99,,2013-01-24 08:00:00,
2013-01-24 01:33:00,24.0,22.0,-100.00,South,186,2.0,9.0,91,-99.99,,,-99.99,,2013-01-24 08:33:00,
2013-01-24 01:43:00,24.0,22.0,-100.00,South,186,2.0,9.0,91,-99.99,,,-99.99,,2013-01-24 08:43:00,
2013-01-24 01:53:00,24.0,22.0,-100.00,South,186,2.0,9.0,91,-99.99,,,-99.99,,2013-01-24 08:53:00,
2013-01-24 02:00:00,24.0,22.0,-100.00,South,176,1.0,9.0,91,-99.99,,,-99.99,,2013-01-24 09:00:00,
2013-01-24 02:33:00,24.0,22.0,-100.00,South,176,1.0,9.0,91,-99.99,,,-99.99,,2013-01-24 09:33:00,
2013-01-24 02:43:00,24.0,22.0,-100.00,South,176,1.0,9.0,91,-99.99,,,-99.99,,2013-01-24 09:43:00,
2013-01-24 02:53:00,24.0,22.0,-100.00,South,176,1.0,9.0,91,-99.99,,,-99.99,,2013-01-24 09:53:00,
2013-01-24 03:00:00,24.0,22.0,-100.00,South,179,0.0,5.0,92,-99.99,,,-99.99,,2013-01-24 10:00:00,
2013-01-24 03:33:00,24.0,22.0,-100.00,South,179,0.0,5.0,92,-99.99,,,-99.99,,2013-01-24 10:33:00,
2013-01-24 03:43:00,24.0,22.0,-100.00,South,179,0.0,5.0,92,-99.99,,,-99.99,,2013-01-24 10:43:00,
2013-01-24 03:53:00,24.0,22.0,-100.00,South,179,0.0,5.0,92,-99.99,,,-99.99,,2013-01-24 10:53:00,
2013-01-24 04:00:00,24.0,22.0,-100.00,SSW,196,1.0,7.0,91,-99.99,,,-99.99,,2013-01-24 11:00:00,
2013-01-24 04:33:00,24.0,22.0,-100.00,SSW,196,1.0,7.0,91,-99.99,,,-99.99,,2013-01-24 11:33:00,
2013-01-24 04:43:00,24.0,22.0,-100.00,SSW,196,1.0,7.0,91,-99.99,,,-99.99,,2013-01-24 11:43:00,
2013-01-24 04:53:00,24.0,22.0,-100.00,SSW,196,1.0,7.0,91,-99.99,,,-99.99,,2013-01-24 11:53:00,
2013-01-24 05:00:00,24.0,22.0,-100.00,SSW,207,3.0,11.0,91,-99.99,,,-99.99,,2013-01-24 12:00:00,
2013-01-24 05:33:00,24.0,22.0,-100.00,SSW,207,3.0,11.0,91,-99.99,,,-99.99,,2013-01-24 12:33:00,
2013-01-24 05:43:00,24.0,22.0,-100.00,SSW,207,3.0,11.0,91,-99.99,,,-99.99,,2013-01-24 12:43:00,
2013-01-24 05:53:00,24.0,22.0,-100.00,SSW,207,3.0,11.0,91,-99.99,,,-99.99,,2013-01-24 12:53:00,
2013-01-24 07:00:00,23.0,21.0,-100.00,SSW,212,0.0,0.0,91,-99.99,,,-99.99,,2013-01-24 14:00:00,
2013-01-24 07:33:00,23.0,21.0,-100.00,SSW,212,0.0,0.0,91,-99.99,,,-99.99,,2013-01-24 14:33:00,
2013-01-24 07:43:00,23.0,21.0,-100.00,SSW,212,0.0,0.0,91,-99.99,,,-99.99,,2013-01-24 14:43:00,
2013-01-24 07:54:00,23.0,21.0,-100.00,SSW,212,0.0,0.0,91,-99.99,,,-99.99,,2013-01-24 14:54:00,
2013-01-24 08:00:00,23.0,20.0,-100.00,SSW,205,0.0,1.0,90,-99.99,,,-99.99,,2013-01-24 15:00:00,
2013-01-24 08:33:00,23.0,20.0,-100.00,SSW,205,0.0,1.0,90,-99.99,,,-99.99,,2013-01-24 15:33:00,
2013-01-24 08:43:00,23.0,20.0,-100.00,SSW,205,0.0,1.0,90,-99.99,,,-99.99,,2013-01-24 15:43:00,
2013-01-24 08:53:00,23.0,20.0,-100.00,SSW,205,0.0,1.0,90,-99.99,,,-99.99,,2013-01-24 15:53:00,
2013-01-24 09:00:00,23.0,21.0,-100.00,SSW,195,0.0,0.0,91,-99.99,,,-99.99,,2013-01-24 16:00:00,
2013-01-24 09:33:00,23.0,21.0,-100.00,SSW,195,0.0,0.0,91,-99.99,,,-99.99,,2013-01-24 16:33:00,
2013-01-24 09:43:00,23.0,21.0,-100.00,SSW,195,0.0,0.0,91,-99.99,,,-99.99,,2013-01-24 16:43:00,
2013-01-24 10:00:00,24.0,22.0,-100.00,South,175,0.0,0.0,91,-99.99,,,-99.99,,2013-01-24 17:00:00,
2013-01-24 10:32:00,24.0,22.0,-100.00,South,175,0.0,0.0,91,-99.99,,,-99.99,,2013-01-24 17:32:00,
2013-01-24 10:42:00,24.0,22.0,-100.00,South,175,0.0,0.0,91,-99.99,,,-99.99,,2013-01-24 17:42:00,
2013-01-24 10:52:00,24.0,22.0,-100.00,South,175,0.0,0.0,91,-99.99,,,-99.99,,2013-01-24 17:52:00,
2013-01-24 11:00:00,25.0,23.0,-100.00,SW,218,0.0,0.0,91,-99.99,,,-99.99,,2013-01-24 18:00:00,
2013-01-24 11:33:00,25.0,23.0,-100.00,SW,218,0.0,0.0,91,-99.99,,,-99.99,,2013-01-24 18:33:00,
2013-01-24 11:43:00,25.0,23.0,-100.00,SW,218,0.0,0.0,91,-99.99,,,-99.99,,2013-01-24 18:43:00,
2013-01-24 11:53:00,25.0,23.0,-100.00,SW,218,0.0,0.0,91,-99.99,,,-99.99,,2013-01-24 18:53:00,
2013-01-24 12:00:00,27.0,25.0,-100.00,South,179,0.0,0.0,90,-99.99,,,-99.99,,2013-01-24 19:00:00,
2013-01-24 12:33:00,27.0,25.0,-100.00,South,179,0.0,0.0,90,-99.99,,,-99.99,,2013-01-24 19:33:00,
2013-01-24 12:42:00,27.0,25.0,-100.00,South,179,0.0,0.0,90,-99.99,,,-99.99,,2013-01-24 19:42:00,
2013-01-24 12:52:00,27.0,25.0,-100.00,South,179,0.0,0.0,90,-99.99,,,-99.99,,2013-01-24 19:52:00,
2013-01-24 13:00:00,26.0,24.0,-100.00,SSW,196,0.0,0.0,91,-99.99,,,-99.99,,2013-01-24 20:00:00,
2013-01-24 13:33:00,26.0,24.0,-100.00,SSW,196,0.0,0.0,91,-99.99,,,-99.99,,2013-01-24 20:33:00,
2013-01-24 13:42:00,26.0,24.0,-100.00,SSW,196,0.0,0.0,91,-99.99,,,-99.99,,2013-01-24 20:42:00,
2013-01-24 13:52:00,26.0,24.0,-100.00,SSW,196,0.0,0.0,91,-99.99,,,-99.99,,2013-01-24 20:52:00,
2013-01-24 14:00:00,26.0,24.0,-100.00,SSW,196,0.0,0.0,91,-99.99,,,-99.99,,2013-01-24 21:00:00,
2013-01-24 14:33:00,26.0,24.0,-100.00,SSW,196,0.0,0.0,91,-99.99,,,-99.99,,2013-01-24 21:33:00,
2013-01-24 14:43:00,26.0,24.0,-100.00,SSW,196,0.0,0.0,91,-99.99,,,-99.99,,2013-01-24 21:43:00,
2013-01-24 14:53:00,26.0,24.0,-100.00,SSW,196,0.0,0.0,91,-99.99,,,-99.99,,2013-01-24 21:53:00,
2013-01-24 15:00:00,27.0,25.0,-100.00,South,175,0.0,0.0,91,-99.99,,,-99.99,,2013-01-24 22:00:00,
2013-01-24 15:33:00,27.0,25.0,-100.00,South,175,0.0,0.0,91,-99.99,,,-99.99,,2013-01-24 22:33:00,
2013-01-24 15:42:00,27.0,25.0,-100.00,South,175,0.0,0.0,91,-99.99,,,-99.99,,2013-01-24 22:42:00,
2013-01-24 15:53:00,27.0,25.0,-100.00,South,175,0.0,0.0,91,-99.99,,,-99.99,,2013-01-24 22:53:00,
2013-01-24 16:00:00,27.0,25.0,-100.00,SSE,164,0.0,0.0,92,-99.99,,,-99.99,,2013-01-24 23:00:00,
2013-01-24 16:32:00,27.0,25.0,-100.00,SSE,164,0.0,0.0,92,-99.99,,,-99.99,,2013-01-24 23:32:00,
2013-01-24 16:42:00,27.0,25.0,-100.00,SSE,164,0.0,0.0,92,-99.99,,,-99.99,,2013-01-24 23:42:00,
2013-01-24 16:52:00,27.0,25.0,-100.00,SSE,164,0.0,0.0,92,-99.99,,,-99.99,,2013-01-24 23:52:00,
2013-01-24 17:00:00,26.0,24.0,-100.00,South,172,0.0,0.0,91,-99.99,,,-99.99,,2013-01-25 00:00:00,
2013-01-24 17:32:00,26.0,24.0,-100.00,South,172,0.0,0.0,91,-99.99,,,-99.99,,2013-01-25 00:32:00,
2013-01-24 17:42:00,26.0,24.0,-100.00,South,172,0.0,0.0,91,-99.99,,,-99.99,,2013-01-25 00:42:00,
2013-01-24 17:52:00,26.0,24.0,-100.00,South,172,0.0,0.0,91,-99.99,,,-99.99,,2013-01-25 00:52:00,
2013-01-24 18:00:00,25.0,23.0,-100.00,SSW,194,0.0,0.0,91,-99.99,,,-99.99,,2013-01-25 01:00:00,
2013-01-24 18:32:00,25.0,23.0,-100.00,SSW,194,0.0,0.0,91,-99.99,,,-99.99,,2013-01-25 01:32:00,
2013-01-24 18:42:00,25.0,23.0,-100.00,SSW,194,0.0,0.0,91,-99.99,,,-99.99,,2013-01-25 01:42:00,
2013-01-24 18:52:00,25.0,23.0,-100.00,SSW,194,0.0,0.0,91,-99.99,,,-99.99,,2013-01-25 01:52:00,
2013-01-24 19:00:00,25.0,23.0,-100.00,South,191,0.0,0.0,91,-99.99,,,-99.99,,2013-01-25 02:00:00,
2013-01-24 19:33:00,25.0,23.0,-100.00,South,191,0.0,0.0,91,-99.99,,,-99.99,,2013-01-25 02:33:00,
2013-01-24 19:43:00,25.0,23.0,-100.00,South,191,0.0,0.0,91,-99.99,,,-99.99,,2013-01-25 02:43:00,
2013-01-24 19:52:00,25.0,23.0,-100.00,South,191,0.0,0.0,91,-99.99,,,-99.99,,2013-01-25 02:52:00,
2013-01-24 21:00:00,26.0,24.0,-100.00,South,190,0.0,0.0,92,-99.99,,,-99.99,,2013-01-25 04:00:00,
2013-01-24 21:32:00,26.0,24.0,-100.00,South,190,0.0,0.0,92,-99.99,,,-99.99,,2013-01-25 04:32:00,
2013-01-24 21:42:00,26.0,24.0,-100.00,South,190,0.0,0.0,92,-99.99,,,-99.99,,2013-01-25 04:42:00,
2013-01-24 21:51:00,26.0,24.0,-100.00,South,190,0.0,0.0,92,-99.99,,,-99.99,,2013-01-25 04:51:00,
2013-01-24 22:00:00,26.0,24.0,-100.00,South,191,0.0,0.0,92,-99.99,,,-99.99,,2013-01-25 05:00:00,
2013-01-24 22:32:00,26.0,24.0,-100.00,South,191,0.0,0.0,92,-99.99,,,-99.99,,2013-01-25 05:32:00,
2013-01-24 22:43:00,26.0,24.0,-100.00,South,191,0.0,0.0,92,-99.99,,,-99.99,,2013-01-25 05:43:00,
2013-01-24 22:52:00,26.0,24.0,-100.00,South,191,0.0,0.0,92,-99.99,,,-99.99,,2013-01-25 05:52:00,
2013-01-24 23:00:00,27.0,25.0,-100.00,SSW,193,0.0,0.0,92,-99.99,,,-99.99,,2013-01-25 06:00:00,
2013-01-24 23:32:00,27.0,25.0,-100.00,SSW,193,0.0,0.0,92,-99.99,,,-99.99,,2013-01-25 06:32:00,
2013-01-24 23:42:00,27.0,25.0,-100.00,SSW,193,0.0,0.0,92,-99.99,,,-99.99,,2013-01-25 06:42:00,
2013-01-24 23:52:00,27.0,25.0,-100.00,SSW,193,0.0,0.0,92,-99.99,,,-99.99,,2013-01-25 06:52:00,